Vorticity
12 14 10 7 5 5 5 7 8 9 7 1 6 0 0 4 6 9 7 9 11 9 9 8 7 8 13 12 20 7 -5 25 33 -4 -3 0 5 6
12 11 7 7 9 7 2 5 5 7 8 6 4 9 6 0 1 7 10 7 11 10 9 9 6 7 11 15 15 14 27 -5 19 13 -1 0 2 8
8 7 8 8 5 6 7 7 7 8 8 8 9 8 11 10 5 4 8 13 8 13 11 8 9 6 8 9 12 31 13 17 8 25 -8 -4 0 10
10 10 10 9 9 9 8 6 7 6 6 7 6 7 5 12 10 8 5 9 13 9 14 10 9 7 6 11 10 15 14 14 -4 24 -0 -4 11 10
8 8 8 8 9 9 9 8 8 8 8 8 10 9 9 5 11 9 5 3 8 12 13 12 10 9 8 11 14 13 19 25 21 -1 16 18 -2 6
9 10 10 10 10 10 10 9 9 10 10 9 9 11 9 6 2 10 6 6 3 8 12 13 13 11 7 8 15 12 11 11 -1 12 5 18 1 11
8 9 9 9 9 9 8 8 8 7 6 6 6 8 11 10 10 3 11 8 4 2 5 11 10 13 11 6 9 16 15 15 12 5 21 12 -23 10
16 16 15 14 13 13 13 13 13 15 15 15 16 13 10 10 10 13 5 11 9 4 5 4 10 10 13 8 8 13 12 14 13 -0 9 19 -20 25
15 16 17 17 17 17 18 17 17 15 12 10 9 9 17 15 10 11 15 8 14 6 9 5 7 9 10 11 7 12 16 11 14 17 6 4 19 2
13 13 14 14 15 14 14 14 15 16 19 19 16 12 8 13 14 12 10 13 10 19 11 12 5 12 7 13 9 8 12 17 22 14 1 5 27 -6
13 14 15 14 15 16 17 17 17 17 18 20 20 19 18 14 14 15 12 13 13 13 16 16 15 15 9 8 11 10 10 14 16 12 17 -14 20 8
12 13 13 13 13 13 13 14 15 17 18 21 22 24 22 22 19 15 15 9 12 15 15 16 15 24 19 12 7 10 10 13 15 17 19 -0 4 8
12 14 16 17 17 17 15 14 15 17 15 16 17 16 24 25 21 19 17 14 12 11 11 16 15 19 27 22 10 8 10 11 16 11 23 13 5 12
12 14 17 17 15 14 15 13 9 8 9 12 13 14 6 11 19 20 18 17 14 12 10 12 13 11 19 25 15 13 11 13 12 15 13 13 17 -9
14 14 14 11 11 12 15 14 15 13 10 6 7 7 11 9 9 16 17 19 16 14 13 13 12 12 19 21 19 2 13 15 12 14 18 16 34 8
16 15 12 10 10 8 6 5 5 2 5 9 10 17 11 7 12 7 14 18 18 15 13 14 15 11 19 21 17 6 7 13 12 16 6 -7 6 44
15 15 13 10 11 13 13 11 11 11 13 15 10 10 12 18 14 2 4 10 17 15 14 15 18 13 12 18 18 16 7 13 14 15 20 13 -3 20
15 7 10 10 11 12 13 15 19 20 17 12 11 15 10 8 14 13 12 8 15 19 16 15 14 12 11 15 19 17 12 13 15 16 16 7 3 -2
15 14 12 11 13 16 16 15 15 15 16 16 18 15 10 15 6 12 11 16 10 15 16 15 16 12 12 13 13 9 23 11 20 16 16 9 11 9
13 13 13 11 8 11 14 14 12 13 14 18 18 19 19 16 12 10 8 7 10 17 16 15 15 13 8 8 13 19 9 27 20 19 19 3 21 19
12 14 15 16 13 10 11 14 13 11 11 12 17 17 18 18 20 15 11 12 10 8 16 17 13 11 8 9 13 16 16 15 26 30 -2 18 -9 -12
12 12 11 12 15 15 12 12 13 12 13 13 13 12 12 19 15 23 27 14 12 9 13 15 17 15 12 9 10 13 10 17 18 23 23 9 4 6
13 11 12 12 10 9 9 13 16 13 13 14 16 17 9 22 9 1 6 21 16 16 11 11 15 18 12 10 9 12 11 17 21 22 35 -6 17 23
Height
3072 3072 3072 3071 3071 3070 3070 3069 3069 3069 3071 3078 3076 3076 3075 3075 3074 3075 3077 3080 3081 3082 3083 3083 3084 3084 3087 3090 3094 3096 3101 3102 3105 3110 3113 3114 3116 3116
3063 3063 3064 3063 3062 3062 3061 3060 3060 3059 3058 3066 3067 3067 3066 3067 3066 3067 3069 3069 3072 3074 3075 3077 3077 3077 3080 3083 3086 3089 3093 3096 3102 3104 3108 3112 3114 3114
3053 3053 3054 3052 3053 3052 3051 3051 3049 3047 3045 3053 3055 3058 3059 3057 3057 3057 3058 3061 3062 3064 3067 3069 3071 3071 3072 3075 3078 3082 3084 3090 3096 3099 3104 3108 3110 3112
3044 3043 3043 3042 3042 3041 3039 3039 3039 3038 3034 3035 3044 3045 3047 3047 3047 3049 3049 3049 3053 3056 3057 3060 3063 3065 3066 3068 3070 3074 3079 3082 3089 3094 3097 3102 3106 3109
3033 3032 3032 3031 3031 3030 3028 3027 3027 3026 3024 3021 3027 3031 3034 3037 3037 3038 3039 3040 3042 3045 3048 3051 3053 3056 3058 3061 3063 3067 3072 3077 3080 3089 3093 3098 3102 3107
3020 3020 3019 3018 3018 3018 3017 3016 3015 3014 3013 3011 3010 3017 3019 3025 3023 3027 3029 3030 3032 3035 3038 3042 3044 3047 3049 3052 3056 3059 3065 3070 3074 3081 3086 3090 3097 3101
3007 3006 3005 3004 3004 3004 3003 3004 3003 3001 3000 2999 2998 3001 3006 3008 3012 3012 3014 3018 3021 3024 3028 3032 3036 3038 3041 3044 3048 3052 3055 3062 3067 3073 3078 3085 3089 3095
2993 2993 2991 2989 2988 2988 2988 2987 2987 2986 2987 2985 2985 2986 2993 2994 2998 3000 2998 3004 3007 3009 3013 3022 3024 3030 3032 3035 3038 3043 3048 3053 3060 3067 3072 3076 3083 3088
2981 2979 2977 2975 2974 2973 2973 2972 2972 2971 2970 2970 2970 2973 2976 2980 2984 2986 2988 2989 2992 2996 2997 3007 3012 3019 3021 3025 3028 3033 3038 3043 3050 3056 3063 3070 3078 3084
2969 2967 2964 2963 2961 2958 2957 2957 2956 2956 2957 2956 2956 2958 2960 2965 2968 2971 2974 2975 2979 2984 2983 2987 3000 3007 3010 3015 3018 3023 3028 3033 3039 3047 3055 3063 3070 3077
2958 2956 2953 2951 2949 2947 2945 2943 2942 2942 2942 2941 2942 2944 2947 2949 2954 2957 2959 2963 2965 2973 2972 2972 2984 2992 2999 3005 3007 3012 3018 3024 3028 3035 3045 3054 3061 3070
2948 2946 2943 2940 2937 2936 2934 2932 2930 2931 2930 2930 2930 2931 2933 2936 2939 2941 2945 2948 2952 2957 2962 2961 2969 2974 2985 2991 2996 3001 3008 3013 3020 3027 3035 3043 3051 3060
2936 2935 2934 2931 2928 2926 2924 2922 2921 2921 2920 2919 2919 2921 2923 2924 2926 2928 2931 2934 2938 2944 2951 2950 2956 2960 2967 2977 2983 2989 2996 3003 3009 3017 3024 3033 3042 3049
2926 2924 2923 2921 2919 2917 2916 2915 2914 2913 2912 2911 2911 2911 2913 2915 2916 2916 2919 2921 2925 2931 2937 2938 2944 2947 2954 2963 2971 2977 2983 2991 2999 3007 3013 3023 3032 3039
2916 2914 2912 2911 2909 2908 2907 2906 2906 2905 2904 2903 2903 2903 2904 2906 2907 2907 2909 2911 2915 2920 2924 2927 2934 2936 2943 2948 2957 2965 2971 2978 2987 2994 3002 3012 3019 3028
2908 2906 2904 2902 2901 2900 2898 2898 2897 2896 2895 2894 2894 2895 2896 2897 2898 2899 2900 2902 2904 2909 2913 2917 2923 2924 2930 2937 2941 2950 2958 2966 2974 2984 2992 3000 3008 3015
2899 2897 2895 2893 2892 2891 2890 2888 2887 2886 2885 2884 2884 2885 2886 2887 2888 2891 2892 2893 2894 2898 2903 2907 2912 2914 2919 2925 2929 2936 2945 2954 2962 2970 2979 2987 2996 3004
2891 2888 2887 2885 2883 2881 2879 2877 2876 2875 2874 2874 2874 2875 2876 2877 2878 2880 2883 2883 2886 2889 2893 2897 2902 2905 2909 2914 2920 2926 2934 2943 2951 2959 2968 2977 2985 2994
2883 2880 2878 2876 2874 2872 2869 2867 2866 2865 2864 2863 2863 2864 2865 2866 2869 2870 2872 2875 2877 2880 2884 2887 2892 2895 2899 2905 2913 2916 2924 2933 2939 2947 2956 2966 2975 2984
2874 2871 2869 2867 2865 2862 2860 2858 2856 2855 2854 2853 2853 2853 2854 2855 2857 2860 2863 2866 2869 2872 2875 2878 2882 2887 2890 2896 2901 2906 2914 2922 2928 2936 2944 2954 2965 2973
2866 2863 2860 2857 2855 2853 2851 2849 2848 2846 2845 2844 2843 2843 2844 2844 2846 2849 2852 2856 2859 2862 2865 2869 2873 2878 2880 2885 2890 2898 2906 2911 2917 2925 2933 2943 2952 2961
2857 2854 2852 2849 2847 2845 2842 2841 2839 2838 2836 2835 2835 2834 2835 2835 2837 2840 2843 2846 2849 2853 2856 2861 2864 2868 2871 2875 2882 2889 2895 2901 2907 2913 2922 2931 2943 2951
2848 2845 2843 2840 2838 2836 2834 2832 2830 2828 2827 2826 2825 2825 2826 2826 2828 2830 2833 2836 2839 2843 2847 2850 2854 2859 2862 2866 2872 2878 2885 2891 2898 2903 2910 2922 2933 2942